DW1086 Northport NY US current weather conditions

sailwx.info

Wind from 237 at 4 knots gusting 12

Air temperature 6.7° C
Dewpoint 2.7° C

Last reported at 2019-Dec-15 12:06 UTC.
Time now 2019-Dec-15 13:17 UTC

Location: N 40°55' W 073°20'.
View on Google Maps.

See reports from other nearby stations

  
Tides and Currents Weather Stations Pressure Air Temp Water Temp Dewpoint Dewpoint Depression Visibility Wind Speed Wind Dir Waves Ship Positions
date/time (UTC)wind fromknots sea level pressurealtimeterstation pressurevisibilityair tempwater tempwave heightnotes
2019-Dec-15 12:06 237 4 gusting 12 6.7
2019-Dec-15 12:01 247 6 gusting 14 6.7
2019-Dec-15 11:56 240 5 gusting 12 6.7
2019-Dec-15 11:51 248 3 gusting 13 6.7
2019-Dec-15 11:46 272 4 gusting 11 6.1
2019-Dec-15 11:41 264 6 gusting 17 6.1
2019-Dec-15 11:36 255 5 gusting 12 6.1
2019-Dec-15 11:31 273 4 gusting 13 6.1
2019-Dec-15 11:26 265 5 gusting 13 6.1
2019-Dec-15 11:21 269 4 gusting 13 6.1
2019-Dec-15 11:16 252 7 gusting 13 6.1
2019-Dec-15 11:11 247 4 gusting 14 6.1
2019-Dec-15 11:06 278 2 gusting 11 6.1
2019-Dec-15 11:01 254 4 gusting 12 6.1
2019-Dec-15 10:56 250 5 gusting 15 6.1
2019-Dec-15 10:51 250 4 gusting 13 6.1
2019-Dec-15 10:46 269 6 gusting 17 6.1
2019-Dec-15 10:41 272 6 gusting 13 6.1
2019-Dec-15 10:36 268 6 gusting 12 6.1
2019-Dec-15 10:31 269 4 gusting 14 6.1
2019-Dec-15 10:26 276 4 gusting 10 6.1
2019-Dec-15 10:21 250 4 gusting 10 6.1
2019-Dec-15 10:16 253 3 gusting 14 6.1
2019-Dec-15 10:11 269 6 gusting 12 6.1
2019-Dec-15 10:06 258 2 gusting 12 6.7
2019-Dec-15 10:01 263 5 gusting 10 6.7
2019-Dec-15 09:56 272 5 gusting 12 6.7
2019-Dec-15 09:51 268 6 gusting 13 6.7
2019-Dec-15 09:46 253 1 gusting 10 6.7
2019-Dec-15 09:41 255 5 gusting 13 6.7
2019-Dec-15 09:36 255 3 gusting 8 6.7
2019-Dec-15 09:31 242 5 gusting 12 6.7
2019-Dec-15 09:26 246 6 gusting 14 6.7
2019-Dec-15 09:21 257 6 gusting 11 6.7
2019-Dec-15 09:16 254 5 gusting 11 6.7
2019-Dec-15 09:11 235 1 gusting 13 6.7
2019-Dec-15 09:06 253 5 gusting 13 6.7
2019-Dec-15 09:01 260 4 gusting 11 6.7
2019-Dec-15 08:56 245 1 gusting 11 6.7
2019-Dec-15 08:51 257 2 gusting 10 6.7
2019-Dec-15 08:46 257 4 gusting 10 6.7
2019-Dec-15 08:41 278 4 gusting 13 6.7
2019-Dec-15 08:36 254 5 gusting 12 6.7
2019-Dec-15 08:31 260 5 gusting 11 6.7
2019-Dec-15 08:26 252 5 gusting 10 6.7
2019-Dec-15 08:21 269 7 gusting 17 6.7
2019-Dec-15 08:16 281 7 gusting 19 6.7
2019-Dec-15 08:11 266 6 gusting 14 6.7
2019-Dec-15 08:06 251 8 gusting 14 6.7
2019-Dec-15 08:01 255 8 gusting 14 6.7
2019-Dec-15 07:56 271 10 gusting 18 6.7
2019-Dec-15 07:51 264 6 gusting 14 6.7
2019-Dec-15 07:46 273 6 gusting 15 6.7
2019-Dec-15 07:41 272 4 gusting 14 6.7
2019-Dec-15 07:36 271 8 gusting 19 6.7
2019-Dec-15 07:31 253 6 gusting 13 6.7
2019-Dec-15 07:26 262 4 gusting 11 6.7
2019-Dec-15 07:21 261 4 gusting 12 6.7
2019-Dec-15 07:16 259 4 gusting 12 6.7
2019-Dec-15 07:11 275 6 gusting 12 6.7
2019-Dec-15 07:06 274 6 gusting 15 6.7
2019-Dec-15 07:01 276 4 gusting 13 6.7
2019-Dec-15 06:56 270 6 gusting 15 6.7
2019-Dec-15 06:51 259 3 gusting 7 6.7
2019-Dec-15 06:46 278 6 gusting 12 6.7
2019-Dec-15 06:41 236 6 gusting 13 6.7
2019-Dec-15 06:36 269 1 gusting 11 6.7
2019-Dec-15 06:31 275 4 gusting 11 6.7
2019-Dec-15 06:26 247 5 gusting 11 6.7
2019-Dec-15 06:21 260 4 gusting 10 6.7
2019-Dec-15 06:16 268 3 gusting 11 7.2
2019-Dec-15 06:11 261 4 gusting 17 7.2
2019-Dec-15 06:06 260 4 gusting 13 7.2
2019-Dec-15 06:01 276 6 gusting 14 7.2
2019-Dec-15 05:56 252 5 gusting 11 7.2
2019-Dec-15 05:51 269 4 gusting 15 7.2
2019-Dec-15 05:46 260 4 gusting 11 7.2
2019-Dec-15 05:41 261 6 gusting 13 7.2
2019-Dec-15 05:36 259 6 gusting 20 7.2
2019-Dec-15 05:31 273 4 gusting 12 7.2
2019-Dec-15 05:26 241 4 gusting 10 7.2
2019-Dec-15 05:21 257 7 gusting 17 7.2
2019-Dec-15 05:16 266 4 gusting 17 7.2
2019-Dec-15 05:11 268 6 gusting 17 7.2
2019-Dec-15 05:06 297 6 gusting 13 7.2
2019-Dec-15 05:01 269 7 gusting 17 7.2
2019-Dec-15 04:56 261 4 gusting 13 7.2
2019-Dec-15 04:51 249 7 gusting 17 7.2
2019-Dec-15 04:46 275 5 gusting 13 7.2
2019-Dec-15 04:41 258 6 gusting 14 7.2
2019-Dec-15 04:36 260 5 gusting 11 7.2
2019-Dec-15 04:31 275 5 gusting 13 7.2
2019-Dec-15 04:26 269 6 gusting 18 7.2
2019-Dec-15 04:21 281 7 gusting 13 7.8
2019-Dec-15 04:16 270 6 gusting 15 7.8
2019-Dec-15 04:11 269 10 gusting 18 7.8
2019-Dec-15 04:01 280 6 gusting 17 8.3
2019-Dec-15 03:56 261 8 gusting 20 8.3
2019-Dec-15 03:51 255 7 gusting 18 8.3
2019-Dec-15 03:46 245 7 gusting 18 8.3
2019-Dec-15 03:41 249 7 gusting 17 8.3
2019-Dec-15 03:36 244 6 gusting 19 8.3
2019-Dec-15 03:31 243 5 gusting 12 8.3
2019-Dec-15 03:26 241 6 gusting 19 8.3
2019-Dec-15 03:21 249 5 gusting 17 8.3
2019-Dec-15 03:16 235 7 gusting 17 8.3
2019-Dec-15 03:11 223 7 gusting 19 8.3
2019-Dec-15 03:06 253 5 gusting 17 8.3
2019-Dec-15 03:01 247 6 gusting 17 8.9
2019-Dec-15 02:56 249 6 gusting 13 8.9
2019-Dec-15 02:51 250 6 gusting 19 8.9
2019-Dec-15 02:46 244 6 gusting 17 8.9
2019-Dec-15 02:41 246 6 gusting 13 8.9
2019-Dec-15 02:36 242 8 gusting 15 8.9
2019-Dec-15 02:31 244 5 gusting 14 8.9
2019-Dec-15 02:26 257 7 gusting 17 8.9
2019-Dec-15 02:21 243 10 gusting 22 9.4
2019-Dec-15 02:16 235 6 gusting 14 9.4
2019-Dec-15 02:11 247 10 gusting 19 9.4
2019-Dec-15 02:06 242 7 gusting 18 9.4
2019-Dec-15 02:01 261 6 gusting 13 9.4
2019-Dec-15 01:56 218 6 gusting 13 9.4
2019-Dec-15 01:51 230 5 gusting 14 9.4
2019-Dec-15 01:46 230 6 gusting 13 9.4
2019-Dec-15 01:41 253 4 gusting 11 9.4
2019-Dec-15 01:36 243 5 gusting 10 9.4
2019-Dec-15 01:31 245 4 gusting 13 9.4
2019-Dec-15 01:26 228 6 gusting 14 9.4
2019-Dec-15 01:21 258 3 gusting 14 9.4
2019-Dec-15 01:16 223 4 gusting 17 9.4
2019-Dec-15 01:11 236 5 gusting 15 10.0
2019-Dec-15 01:06 236 4 gusting 13 10.0
2019-Dec-15 01:01 246 4 gusting 13 10.0
2019-Dec-15 00:56 224 2 gusting 13 10.0
2019-Dec-15 00:51 224 5 gusting 13 10.6
2019-Dec-15 00:46 245 4 gusting 13 10.6
2019-Dec-15 00:41 216 5 gusting 14 10.6
2019-Dec-15 00:36 235 5 gusting 13 10.6
2019-Dec-15 00:31 249 4 gusting 12 11.1
2019-Dec-15 00:26 228 3 gusting 19 11.1
2019-Dec-15 00:21 217 1 gusting 10 11.1
2019-Dec-15 00:16 240 2 gusting 13 11.1
2019-Dec-15 00:11 221 2 gusting 10 11.1
2019-Dec-15 00:06 225 4 gusting 8 11.1
2019-Dec-15 00:01 218 2 gusting 7 11.1
2019-Dec-14 23:56 214 4 gusting 7 11.1
2019-Dec-14 23:51 225 4 gusting 10 11.7
2019-Dec-14 23:46 216 2 gusting 8 11.7
2019-Dec-14 23:41 233 2 gusting 10 11.7
2019-Dec-14 23:36 199 2 gusting 10 11.7
2019-Dec-14 23:31 216 1 gusting 6 11.7
2019-Dec-14 23:26 198 11.7
2019-Dec-14 23:21 216 2 gusting 7 11.7
2019-Dec-14 23:16 221 1 gusting 10 11.7
2019-Dec-14 23:11 221 5 gusting 10 12.2
2019-Dec-14 23:06 213 4 gusting 8 12.2
2019-Dec-14 23:01 229 1 gusting 10 12.2
2019-Dec-14 22:56 227 1 gusting 7 12.2
2019-Dec-14 22:51 212 0 gusting 10 12.2
2019-Dec-14 22:46 214 3 gusting 10 12.2
2019-Dec-14 22:41 205 3 gusting 10 12.2
2019-Dec-14 22:36 206 5 gusting 13 12.2
2019-Dec-14 22:31 183 3 gusting 13 12.2
2019-Dec-14 22:26 204 2 gusting 12 12.2
2019-Dec-14 22:21 211 5 gusting 12 12.2
2019-Dec-14 22:16 194 6 gusting 12 12.2
2019-Dec-14 22:11 195 4 gusting 13 12.2
2019-Dec-14 22:06 192 5 gusting 13 12.2
2019-Dec-14 22:01 203 9 gusting 18 12.2
2019-Dec-14 21:56 194 6 gusting 14 12.8
2019-Dec-14 21:51 197 6 gusting 13 12.8
2019-Dec-14 21:46 196 5 gusting 17 12.8
2019-Dec-14 21:41 186 6 gusting 15 12.8
2019-Dec-14 21:36 196 5 gusting 13 12.8
2019-Dec-14 21:31 186 5 gusting 17 12.8
2019-Dec-14 21:26 193 5 gusting 13 12.8
2019-Dec-14 21:21 194 4 gusting 13 12.8
2019-Dec-14 21:06 189 5 gusting 17 13.3
2019-Dec-14 21:01 184 4 gusting 13 13.3
2019-Dec-14 20:56 201 4 gusting 15 13.3
2019-Dec-14 20:51 178 6 gusting 13 13.3
2019-Dec-14 20:46 185 2 gusting 11 13.3
2019-Dec-14 20:41 186 4 gusting 13 13.3
2019-Dec-14 20:36 197 5 gusting 14 13.3
2019-Dec-14 20:31 188 5 gusting 14 13.3
2019-Dec-14 20:26 194 4 gusting 13 13.3
2019-Dec-14 20:21 195 6 gusting 13 13.9
2019-Dec-14 20:16 161 3 gusting 11 13.9
2019-Dec-14 20:11 187 6 gusting 13 13.9
2019-Dec-14 20:06 187 5 gusting 15 13.9
2019-Dec-14 20:01 199 5 gusting 12 13.9
2019-Dec-14 19:56 209 4 gusting 12 13.9
2019-Dec-14 19:51 188 4 gusting 13 13.9
2019-Dec-14 19:46 192 5 gusting 10 13.9
2019-Dec-14 19:41 187 4 gusting 12 13.9
2019-Dec-14 19:36 205 5 gusting 11 13.9
2019-Dec-14 19:31 190 2 gusting 6 13.9
2019-Dec-14 19:26 175 2 gusting 7 13.9
2019-Dec-14 19:21 167 3 gusting 8 14.4
2019-Dec-14 19:16 159 2 gusting 7 14.4
2019-Dec-14 19:11 168 14.4
2019-Dec-14 19:06 153 1 gusting 6 14.4
2019-Dec-14 19:01 146 0 gusting 2 14.4
2019-Dec-14 18:56 146 2 gusting 5 14.4
2019-Dec-14 18:51 146 14.4
2019-Dec-14 18:46 153 0 gusting 8 14.4
2019-Dec-14 18:41 167 14.4
2019-Dec-14 18:36 146 1 gusting 6 14.4
2019-Dec-14 18:31 150 2 gusting 4 14.4
2019-Dec-14 18:26 142 13.9
2019-Dec-14 18:21 141 13.3
2019-Dec-14 18:16 152 12.8
2019-Dec-14 18:11 152 1 gusting 6 12.2
2019-Dec-14 18:06 126 11.1
2019-Dec-14 18:01 011 11.1
2019-Dec-14 17:56 005 11.1
2019-Dec-14 17:51 005 11.1
2019-Dec-14 17:46 005 11.1
2019-Dec-14 17:41 005 11.7
2019-Dec-14 17:36 005 11.7
2019-Dec-14 17:31 300 12.2
2019-Dec-14 17:26 300 12.2
2019-Dec-14 17:21 300 11.7
2019-Dec-14 17:16 300 11.7
2019-Dec-14 17:11 300 11.7
2019-Dec-14 17:06 300 11.7
2019-Dec-14 17:01 300 11.1
2019-Dec-14 16:56 300 11.1
2019-Dec-14 16:51 300 11.1
2019-Dec-14 16:46 300 11.1
2019-Dec-14 16:41 300 10.6
2019-Dec-14 16:36 300 10.6
2019-Dec-14 16:31 300 10.6
2019-Dec-14 16:26 300 10.6
2019-Dec-14 16:21 300 10.6
2019-Dec-14 16:16 300 10.6
2019-Dec-14 16:11 300 10.0
2019-Dec-14 16:06 300 10.0
2019-Dec-14 16:01 300 10.0
2019-Dec-14 15:56 300 10.0
2019-Dec-14 15:51 300 10.0
2019-Dec-14 15:46 300 10.0
2019-Dec-14 15:41 300 10.0
2019-Dec-14 15:36 300 10.0
2019-Dec-14 15:31 299 10.0
2019-Dec-14 15:26 299 10.0
2019-Dec-14 15:21 299 10.0
2019-Dec-14 15:16 299 10.0
2019-Dec-14 15:11 299 10.0
2019-Dec-14 15:06 299 10.0
2019-Dec-14 15:01 299 10.0
2019-Dec-14 14:56 299 10.0
2019-Dec-14 14:51 299 10.0
2019-Dec-14 14:46 299 10.0
2019-Dec-14 14:41 299 10.6
2019-Dec-14 14:26 299 11.1
2019-Dec-14 14:21 299 11.1
2019-Dec-14 14:16 299 11.7
2019-Dec-14 14:11 298 12.2
2019-Dec-14 14:06 298 12.8
2019-Dec-14 14:01 298 13.3
2019-Dec-14 13:56 298 13.3
2019-Dec-14 13:51 292 1 gusting 4 13.9
2019-Dec-14 13:46 292 1 gusting 5 14.4
2019-Dec-14 13:41 196 14.4
2019-Dec-14 13:36 190 0 gusting 6 13.9
2019-Dec-14 13:31 200 13.9
2019-Dec-14 13:26 198 13.9
2019-Dec-14 13:21 202 13.9
2019-Dec-14 13:16 217 13.9
2019-Dec-14 13:11 217 0 gusting 2 13.9
2019-Dec-14 13:06 225 0 gusting 4 13.9
2019-Dec-14 13:01 192 2 gusting 6 13.9
2019-Dec-14 12:56 188 0 gusting 4 13.9
2019-Dec-14 12:51 196 1 gusting 5 13.9
2019-Dec-14 12:46 207 0 gusting 8 13.9
2019-Dec-14 12:41 190 1 gusting 6 13.3
2019-Dec-14 12:36 209 2 gusting 6 13.3
2019-Dec-14 12:31 202 2 gusting 6 12.8
2019-Dec-14 12:26 184 1 gusting 5 12.8
2019-Dec-14 12:21 192 2 gusting 6 11.7
2019-Dec-14 12:16 182 1 gusting 6 11.1
2019-Dec-14 12:11 177 10.6
2019-Dec-14 12:06 159 0 gusting 2 10.0
2019-Dec-14 12:01 159 0 gusting 4 10.0
2019-Dec-14 11:56 029 9.4
2019-Dec-14 11:51 029 9.4
2019-Dec-14 11:46 029 9.4
2019-Dec-14 11:41 029 10.0
2019-Dec-14 11:36 029 10.0
2019-Dec-14 11:31 029 10.0
2019-Dec-14 11:26 028 10.0
2019-Dec-14 11:21 024 10.6
2019-Dec-14 10:56 024 10.6
2019-Dec-14 10:51 024 10.6
2019-Dec-14 10:46 024 10.6
2019-Dec-14 10:41 024 10.6
2019-Dec-14 10:36 024 10.6
2019-Dec-14 10:31 024 10.6
2019-Dec-14 10:26 024 10.6
2019-Dec-14 10:21 024 10.6
2019-Dec-14 10:16 024 10.6
2019-Dec-14 10:11 024 10.6
2019-Dec-14 10:06 024 10.6
2019-Dec-14 10:01 024 10.6
2019-Dec-14 09:56 024 10.6
2019-Dec-14 09:51 024 10.6
2019-Dec-14 09:46 024 10.6
2019-Dec-14 09:41 024 10.6
2019-Dec-14 09:36 026 10.6
2019-Dec-14 09:31 026 10.6
2019-Dec-14 09:26 035 10.0
2019-Dec-14 09:21 035 10.0
2019-Dec-14 09:01 066 9.4
2019-Dec-14 08:51 066 9.4
2019-Dec-14 08:46 063 1 gusting 6 9.4
2019-Dec-14 08:41 068 1 gusting 6 9.4
2019-Dec-14 08:36 061 2 gusting 6 9.4
2019-Dec-14 08:31 061 9.4
2019-Dec-14 08:26 061 9.4
2019-Dec-14 08:21 059 5 gusting 10 9.4
2019-Dec-14 08:16 065 1 gusting 8 9.4
2019-Dec-14 08:11 094 1 gusting 13 9.4
2019-Dec-14 08:06 069 6 gusting 14 9.4
2019-Dec-14 08:01 095 2 gusting 7 9.4
2019-Dec-14 07:56 092 2 gusting 6 8.9
2019-Dec-14 07:51 084 4 gusting 13 8.9
2019-Dec-14 07:46 069 8 gusting 14 8.9
2019-Dec-14 07:41 068 6 gusting 12 8.9
2019-Dec-14 07:36 068 8 gusting 14 8.9
2019-Dec-14 07:31 066 7 gusting 12 8.9
2019-Dec-14 07:26 068 8 gusting 12 9.4
2019-Dec-14 07:21 066 9 gusting 15 8.9
2019-Dec-14 07:16 070 8 gusting 15 8.9
2019-Dec-14 07:11 077 6 gusting 12 8.9
2019-Dec-14 07:06 081 7 gusting 10 8.9
2019-Dec-14 07:01 078 7 gusting 13 8.9
2019-Dec-14 06:56 080 6 gusting 11 8.9
2019-Dec-14 06:51 074 6 gusting 11 8.9
2019-Dec-14 06:46 074 7 gusting 15 8.9
2019-Dec-14 06:41 075 8 gusting 13 8.9
2019-Dec-14 06:36 074 7 gusting 12 8.9
2019-Dec-14 06:31 070 7 gusting 13 8.9
2019-Dec-14 06:26 072 8 gusting 14 8.9
2019-Dec-14 06:21 068 8 gusting 13 8.9
2019-Dec-14 06:16 066 5 gusting 8 8.9
2019-Dec-14 06:11 074 6 gusting 8 8.9
2019-Dec-14 06:06 072 7 gusting 12 8.9
2019-Dec-14 06:01 073 8 gusting 15 8.9
2019-Dec-14 05:51 068 8 gusting 13 8.9
2019-Dec-14 05:46 068 10 gusting 13 8.9
2019-Dec-14 00:00 071 1 gusting 4 7.2
2019-Dec-13 23:55 070 1 gusting 2 7.2
2019-Dec-13 23:50 065 2 gusting 4 7.2
2019-Dec-13 23:45 089 1 gusting 5 7.2
2019-Dec-13 23:40 087 2 gusting 6 7.2
2019-Dec-13 23:35 087 2 gusting 6 7.2
2019-Dec-13 23:30 091 3 gusting 6 7.2
2019-Dec-13 23:25 093 5 gusting 6 7.2
2019-Dec-13 23:20 093 3 gusting 6 7.2
2019-Dec-13 23:15 096 1 gusting 6 7.2
2019-Dec-13 23:10 090 2 gusting 6 7.2
2019-Dec-13 23:05 089 0 gusting 4 7.2
2019-Dec-13 23:00 082 0 gusting 5 7.2
2019-Dec-13 22:55 092 2 gusting 6 7.2
2019-Dec-13 22:50 083 0 gusting 4 7.2
2019-Dec-13 22:45 076 0 gusting 4 7.2
2019-Dec-13 22:40 068 7.2
2019-Dec-13 22:35 063 6.7
2019-Dec-13 22:30 066 0 gusting 5 6.7
2019-Dec-13 22:25 063 6.7
2019-Dec-13 22:20 063 0 gusting 2 6.7
2019-Dec-13 22:15 061 6.7
2019-Dec-13 22:10 069 0 gusting 2 6.7
2019-Dec-13 22:05 069 1 gusting 2 6.7
2019-Dec-13 22:00 064 2 gusting 4 6.7
2019-Dec-13 21:55 088 0 gusting 2 6.7
2019-Dec-13 21:50 088 6.7
2019-Dec-13 21:45 094 2 gusting 6 6.7
2019-Dec-13 21:40 090 1 gusting 5 6.7
2019-Dec-13 21:35 082 2 gusting 5 6.7
2019-Dec-13 21:30 085 2 gusting 5 6.7
2019-Dec-13 21:25 091 2 gusting 6 6.7
2019-Dec-13 21:20 094 1 gusting 5 6.7
2019-Dec-13 21:15 094 3 gusting 6 6.7
2019-Dec-13 21:10 095 2 gusting 5 6.7
2019-Dec-13 21:05 096 5 gusting 6 6.7
2019-Dec-13 21:00 088 0 gusting 4 6.7
2019-Dec-13 20:55 087 0 gusting 4 6.7
2019-Dec-13 20:50 088 4 gusting 6 6.7
2019-Dec-13 20:45 093 2 gusting 5 6.7
2019-Dec-13 20:40 096 2 gusting 6 6.7
2019-Dec-13 20:35 095 2 gusting 6 6.7
2019-Dec-13 20:30 087 4 gusting 5 6.7
2019-Dec-13 20:25 076 1 gusting 2 6.1
2019-Dec-13 20:20 075 0 gusting 2 6.1
2019-Dec-13 20:15 069 0 gusting 2 6.1
2019-Dec-13 20:10 069 0 gusting 2 6.1
2019-Dec-13 20:05 080 1 gusting 2 6.1
2019-Dec-13 20:00 078 0 gusting 2 6.1
2019-Dec-13 19:55 073 6.1
2019-Dec-13 19:50 072 1 gusting 2 6.1
2019-Dec-13 19:45 068 1 gusting 4 6.1
2019-Dec-13 19:40 069 1 gusting 2 6.1
2019-Dec-13 19:35 062 6.1
2019-Dec-13 19:30 071 0 gusting 2 6.1
2019-Dec-13 19:25 086 2 gusting 4 6.1
2019-Dec-13 19:20 068 0 gusting 4 6.1
2019-Dec-13 19:15 070 1 gusting 6 6.1
2019-Dec-13 19:10 078 0 gusting 4 6.1
2019-Dec-13 19:05 077 1 gusting 6 6.1
2019-Dec-13 19:00 076 2 gusting 5 6.1
2019-Dec-13 18:55 092 2 gusting 5 6.1
2019-Dec-13 18:50 072 1 gusting 6 6.1
2019-Dec-13 18:45 086 0 gusting 5 6.1
2019-Dec-13 18:40 087 1 gusting 4 6.1
2019-Dec-13 18:35 079 1 gusting 7 6.1
2019-Dec-13 18:30 091 2 gusting 6 6.1
2019-Dec-13 18:25 074 1 gusting 5 6.1
2019-Dec-13 18:20 088 2 gusting 6 6.1
2019-Dec-13 18:15 073 4 gusting 6 6.1
2019-Dec-13 18:10 096 0 gusting 4 6.1
2019-Dec-13 18:05 094 1 gusting 4 6.1
2019-Dec-13 18:00 090 3 gusting 6 6.1
2019-Dec-13 17:55 099 2 gusting 6 6.7
2019-Dec-13 17:50 079 2 gusting 6 6.7
2019-Dec-13 17:45 076 1 gusting 6 6.7
2019-Dec-13 17:40 070 1 gusting 2 6.7
2019-Dec-13 17:35 069 3 gusting 6 7.2
2019-Dec-13 17:30 037 0 gusting 2 7.2
2019-Dec-13 17:25 065 0 gusting 2 7.2
2019-Dec-13 17:20 051 0 gusting 4 7.2
2019-Dec-13 17:15 029 0 gusting 2 6.7
2019-Dec-13 17:10 335 6.7
2019-Dec-13 17:05 335 6.7
2019-Dec-13 17:00 335 6.7
2019-Dec-13 16:55 335 6.7
2019-Dec-13 16:50 335 6.7
2019-Dec-13 16:45 335 6.7
2019-Dec-13 16:40 335 6.7
2019-Dec-13 16:35 335 6.7
2019-Dec-13 16:30 333 6.7
2019-Dec-13 16:25 333 6.7
2019-Dec-13 16:20 333 6.1
2019-Dec-13 16:15 333 6.1
2019-Dec-13 16:10 333 6.1
2019-Dec-13 16:05 333 6.1
2019-Dec-13 16:00 329 6.1
2019-Dec-13 15:55 330 6.1
2019-Dec-13 15:50 330 5.6
2019-Dec-13 15:45 330 5.6
2019-Dec-13 15:40 330 5.6
2019-Dec-13 15:35 330 5.0
2019-Dec-13 15:30 330 5.0
2019-Dec-13 15:25 315 5.0
2019-Dec-13 15:20 308 5.0
2019-Dec-13 15:15 293 4.4
2019-Dec-13 15:10 293 4.4
2019-Dec-13 15:05 293 4.4
2019-Dec-13 15:00 293 3.9
2019-Dec-13 14:55 293 3.9
2019-Dec-13 14:50 293 3.9
2019-Dec-13 14:45 293 3.3
2019-Dec-13 14:40 293 3.3
2019-Dec-13 14:35 293 3.3
2019-Dec-13 14:30 293 2.8
2019-Dec-13 14:25 293 2.8
2019-Dec-13 14:20 293 2.8
2019-Dec-13 14:15 293 2.2
2019-Dec-13 14:10 293 2.2
2019-Dec-13 14:05 293 1.7
2019-Dec-13 14:00 293 1.7
2019-Dec-13 13:55 293 1.7
2019-Dec-13 13:50 293 1.1
2019-Dec-13 13:45 293 1.1
2019-Dec-13 13:40 293 1.1
2019-Dec-13 13:35 293 1.1
2019-Dec-13 13:30 293 1.1
2019-Dec-13 13:25 293 0.6
2019-Dec-13 13:20 293 0.6
2019-Dec-13 13:15 293 0.6
2019-Dec-13 13:10 293 0.6
2019-Dec-13 13:05 293 0.6
2019-Dec-13 13:00 298 -0.0